Location: ??
(35.4032°N, 139.3073°E)
Time: 12:27:50
(UTC+00:00)

Cosmos 1975 - Pass Details

Date: 13 April 2024
Orbit: 514 x 533 km, 82.5° (Epoch: 21 May)

Event Time Altitude Azimuth Distance (km) Brightness Sun altitude
Rises 19:04:48 0° 342° (NNW) 2,641 6.4 -13.9°
Reaches altitude 10° 19:07:03 10° 334° (NNW) 1,752 5.3 -13.4°
Maximum altitude 19:10:32 34° 268° (W) 873 3.3 -12.8°
Drops below altitude 10° 19:14:02 10° 203° (SSW) 1,750 5.0 -12.1°
Enters shadow 19:14:43 - 199° (SSW) 2,011 5.3 -12.0°
